Location: Unspecified
(0.0000°N, 0.0000°E)
Time: 12:43:51
(UTC+00:00)

RS-15 - Pass Details

Date: 13 December 2017
Orbit: 1890 x 2154 km, 64.8° (Epoch: 18 June)

Event Time Altitude Azimuth Distance (km) Brightness Sun altitude
Exits shadow 02:39:28 38° 203° (SSW) 2,641 8.6 -43.7°
Drops below altitude 10° 02:46:09 10° 176° (S) 4,273 10.1 -42.2°
Sets 02:49:33 0° 171° (S) 5,272 10.7 -41.5°
